[Iaude] MPEC X232: 2023 XM10 [a=0.90,e=0.19,i=11.3,H=23.6]

mpec at marsden.cfa.harvard.edu mpec at marsden.cfa.harvard.edu
Tue Dec 12 00:30:34 EST 2023


M.P.E.C. 2023-X232                            Issued 2023 December 12, 05:29 UT

     The Minor Planet Electronic Circulars contain information on unusual
         minor planets, routine data on comets and natural satellites,
         and occasional editorial announcements.  They are published
    on behalf of Division F of the International Astronomical Union by the
          Minor Planet Center, Smithsonian Astrophysical Observatory,
                          Cambridge, MA 02138, U.S.A.
			  
             Prepared using the Tamkin Foundation Computer Network

                              MPC at CFA.HARVARD.EDU
            URL https://www.minorplanetcenter.net/    ISSN 1523-6714

                                   2023 XM10                                    


Observations:
     K23X10M* C2023 12 10.22534101 43 39.858-25 42 24.08         21.25wXEX232F51
     K23X10M  C2023 12 10.24673701 43 39.163-25 39 04.99         21.11wXEX232F51
     K23X10M  C2023 12 10.25770301 43 38.786-25 37 23.42         20.81wXEX232F51
     K23X10M  C2023 12 10.34816001 43 35.716-25 23 16.30         20.61GVEX232F51
     K23X10M  C2023 12 10.34897601 43 35.688-25 23 08.99         20.84GVEX232F51
     K23X10M KC2023 12 11.10132501 43 41.740-23 27 21.64         20.86GVEX232I52
     K23X10M KC2023 12 11.10549901 43 41.624-23 26 44.05         21.07GVEX232I52
     K23X10M KC2023 12 11.10966001 43 41.549-23 26 05.64         20.85GVEX232I52
     K23X10M KC2023 12 11.11381601 43 41.434-23 25 27.88         20.81GVEX232I52
     K23X10M KC2023 12 12.13894 01 43 46.82 -20 51 08.6                VEX232691
     K23X10M KC2023 12 12.15225 01 43 46.53 -20 49 10.3          20.8 RVEX232691
     K23X10M KC2023 12 12.16558 01 43 46.20 -20 47 11.7          20.5 RVEX232691

Observer details:
691 Steward Observatory, Kitt Peak-Spacewatch.  Observer T. H. Bressi.  0.9-m
    f/3 reflector + CCD.
F51 Pan-STARRS 1, Haleakala.  Observers J. Herman, T. Lowe, P. Minguez, A.
    Schultz, I. Smith.  Measurers K. Chambers, T. de Boer, J. Fairlamb, H.
    Gao, M. Huber, C.-C. Lin, E. Magnier, Y. Ramanjooloo, R. Wainscoat, R.
    Weryk.  1.8-m Ritchey-Chretien + CCD.
I52 Steward Observatory, Mt. Lemmon Station.  Observer G. J. Leonard.
    Measurers E. C. Beshore, D. Fay, J. B. Fazekas, D. C. Fuls, A. R. Gibbs,
    A. D. Grauer, H. Groeller, J. K. Hogan, R. A. Kowalski, S. M. Larson, G.
    J. Leonard, D. Rankin, R. L. Seaman, F. C. Shelly, K. W. Wierzchos.  1.0-m
    prime focus + CCD.

Orbital elements:
2023 XM10                                                Earth MOID = 0.0667 AU
Epoch 2023 Sept. 13.0 TT = JDT 2460200.5                MPC                     
M  29.86693              (2000.0)            P               Q                  
n   1.15827895     Peri.  197.00349     +0.28430252     +0.93858812             
a   0.8979675      Node    89.85123     -0.85531410     +0.34043456             
e   0.1909807      Incl.   11.27459     -0.43313955     -0.05618400             
P   0.85           H   23.64          G   0.15           U   7                  
Residuals in seconds of arc
231210 F51  0.3-  0.0     231210 F51  0.0   0.3-    231211 I52  0.2+  0.1+
231210 F51  0.1-  0.3+    231211 I52  0.0   0.1+    231212 691  0.4-  0.0
231210 F51  0.2-  0.2-    231211 I52  0.2-  0.3-    231212 691  0.2-  0.0
231210 F51  0.0   0.1+    231211 I52  0.3+  0.2+    231212 691  0.6-  0.0

Ephemeris:
2023 XM10                a,e,i = 0.90, 0.19, 11                  q = 0.7265
Date    TT    R. A. (2000) Decl.     Delta      r    Elong.  Phase     V
2023 11 12    10 28 12.7 -87 42 39   0.1387  0.9557    71.7   100.3    22.9
...
2023 11 27    01 50 33.6 -61 31 50   0.1053  0.9979    93.0    81.0    21.6
...
2023 12 05    01 44 27.4 -39 53 05   0.1014  1.0169   105.2    69.3    21.1
...
2023 12 11    01 43 39.5 -23 41 53   0.1074  1.0294   111.7    62.7    21.1
2023 12 12    01 43 45.2 -21 10 51   0.1092  1.0313   112.4    62.0    21.1
2023 12 13    01 43 54.3 -18 44 05   0.1111  1.0332   113.1    61.3    21.1
...
2023 12 19    01 45 57.7 -05 43 03   0.1262  1.0435   114.9    58.8    21.3
...
2023 12 27    01 51 16.9 +07 18 30   0.1533  1.0546   113.8    58.6    21.8
...
2024 01 11    02 07 30.7 +22 30 51   0.2151  1.0673   107.3    61.6    22.6

A. U. Tomatic                (C) Copyright 2023 MPC           M.P.E.C. 2023-X232





More information about the Iaude mailing list